COSMOS 1275 DEB, 12714

Orbit data source: Space-Track

COSMOS 1275 DEB, 12714 is space debris in LEO originally from a launch on Thu, 04 Jun 1981 UTC launched from the Plesetsk Missile And Space Complex (PKMTR). Debris objects in space refer to the collection of defunct objects orbiting the Earth. Examples of debris include non-operational satellites, rocket bodies, and fragments generated from explosions, collisions, or faulty payload assembly.

Loading next visibility...
Identifier
12714, 1981-053BJ
Orbit
LEO
Country
Flag of CISCIS
Related business
Manufacturer
Unknown
Mission
Spacecraft
Bus & Motor
Unknown
Mass
Unknown
Launch date (UTC)
1981-06-04 (45 years ago)
Launch vehicle
Unknown
Launch site
Plesetsk Missile And Space Complex (PKMTR)
Object type
Payload
Rocket body
Debris
Shape & HBR
Unknown shape, 0.2 m
Radar Cross Section
Medium (>0.1 m² and <1 m²)

Expand to show TLE details & history
Last TLE update: 12 hours ago

TLE from 12 hours ago
0 COSMOS 1275 DEB
1 12714U 81053BJ  26119.15817851  .00000672  00000-0  84085-3 0  9990
2 12714  82.9765  12.5225 0125422 326.6821  32.6476 13.59836967210238
Epoch: 2026-04-29T03:47Z
TLE epoch observation values (Epoch: 2026-04-29T03:47:46.623Z)
Latitude
0.00005°
Longitude
98.45509°
Altitude
961.194 km
Speed
7.41 km/s
True Right ascension
00h 50m 05s
True Declination
0° 00' 00"
Sunlit
Object was in daylight at epoch
Visualization orbit readout
Latitude
Unknown
Longitude
Unknown
Altitude
Unknown
Speed
Unknown
Apparent Right ascension
Unknown
Apparent Declination
Unknown
Sunlit
N/A
Visualization observer readout
Local Sidereal Time
23:09:50
Azimuth
Unknown
Elevation
Unknown
Doppler factor
Unknown
Orbital elements
Apogee altitude
1,126.41 km
Perigee altitude
940.495 km
Semi-major axis
7,411.59 km
Eccentricity
0.01254
Inclination
82.9765°
RAAN
12.5225°
Arg. of periapsis
326.6821°
True anomaly
33.43329°
Mean anomaly
32.6476°
Eccentric anomaly
33.0394°
Mean motion
3.40154 °/min
Orbital period
105.83 mins
BSTAR
0.00084085
Loading maneuver chart data...
Computing Atmospheric mass density...
Loading historical data...
Loading historical data...
Loading historical data...
Loading historical data...
Loading historical data...
Loading historical data...
Loading historical data...

Documentation

Showing up to 5 results
|